Location: Banksville Park
(38.5557°N, 75.1182°W)
Time: 17:04:34
(UTC+00:00)

Envisat - Visible Passes

Search period start: 25 November 2020 00:00
Search period end: 05 December 2020 00:00
Orbit: 764 x 766 km, 98.1° (Epoch: 25 November)

Date Brightness Start Highest point End Pass type
(mag) Time Alt. Az. Time Alt. Az. Time Alt. Az.
25 Nov 3.4 10:45:45 10° NNE 10:50:50 68° ESE 10:55:53 10° S visible
25 Nov 6.4 23:42:02 10° WSW 23:43:18 11° W 23:44:33 10° WNW visible
26 Nov 5.0 10:09:28 10° NE 10:13:54 29° E 10:18:17 10° SSE visible
26 Nov 5.3 23:01:57 10° SSW 23:06:08 26° W 23:10:21 10° NW visible
27 Nov 6.2 09:34:35 10° ENE 09:36:46 13° E 09:38:56 10° ESE visible
27 Nov 3.0 11:11:11 10° N 11:16:14 68° WNW 11:21:15 10° SSW visible
27 Nov 3.7 22:24:10 10° S 22:29:10 60° W 22:34:12 10° NNW visible
28 Nov 3.9 10:34:27 10° NNE 10:39:26 53° E 10:44:22 10° S visible
28 Nov 6.1 23:29:05 10° WSW 23:31:47 14° W 23:34:29 10° WNW visible
29 Nov 5.4 09:58:25 10° NE 10:02:26 23° E 10:06:25 10° SSE visible
29 Nov 4.9 22:50:08 10° SSW 22:54:41 33° W 22:59:15 10° NNW visible
30 Nov 3.0 10:59:45 10° NNE 11:04:52 86° WNW 11:09:56 10° SSW visible
30 Nov 3.2 22:12:42 10° S 22:17:46 77° WSW 22:22:52 10° NNW visible
01 Dec 4.4 10:23:13 10° NNE 10:28:01 41° E 10:32:46 10° SSE visible
01 Dec 5.9 23:16:47 10° SW 23:20:17 19° W 23:23:48 10° NW visible
02 Dec 5.8 09:47:31 10° NE 09:50:57 18° E 09:54:22 10° SE visible
02 Dec 3.2 11:25:19 10° N 11:30:12 48° WNW 11:35:03 10° SW visible
02 Dec 4.4 22:38:27 10° S 22:43:15 42° W 22:48:04 10° NNW visible
03 Dec 3.2 10:48:22 10° NNE 10:53:28 75° ESE 10:58:32 10° S visible
03 Dec 3.0 22:01:19 10° SSE 22:06:23 84° ENE 22:11:29 10° N visible
04 Dec 4.8 10:12:01 10° NNE 10:16:34 32° E 10:21:04 10° SSE visible
04 Dec 5.5 23:04:46 10° SSW 23:08:48 24° W 23:12:52 10° NW visible
